COSMOS 1275 DEB

Satellite information

Favourite Embed

Satellite Type and Status

DEBRISIN ORBIT

Key statistics

Satellite COSMOS 1275 DEB at a glance.

Uptime

16209

Days in orbit

Revolutions

≈ 13.7

Per day

Orbit

LEO

Low Earth Orbit

Inclination

83.2

Latest

Satellite identification and parameters

Extended collection of information and parameters for COSMOS 1275 DEB.

Object identification

Identified? True

Debris? True

Object name: COSMOS 1275 DEB

International designator: 1981-053PJ

Object number (NORAD): 42098

Object ID (CCSDS): 42098

Country: COMMONWEALTH OF INDEPENDENT STATES (CIS)

Current information (Y/N): Y

RCS size: SMALL

Orbital parameters

Period: 105.257 minutes

Inclination: 83.1521 deg

SMA: 7384.627 km

Apoapsis: 1109.019 km

Periapsis: 903.964 km

RAAN: 83.7724 deg

Eccentricy: 0.01388391

Argument of periapsis: 267.9859 deg

Mean anomaly: 90.539 deg

Mean motion: 13.68075134 rev/day

Mean motion (dot): 0.0000156 rev/day2

B* drag term: 0.0017010192 1/REarth

Two-line elements (TLE)

Creation date: Oct. 15, 2025, 2:21 a.m.

Reference frame: TEME

Reference center: EARTH

Epoch: Oct. 14, 2025, 8:54 p.m. UTC

TLE line 0: 0 COSMOS 1275 DEB

TLE line 1: 1 42098U 81053PJ 25287.87128261 .00001560 00000-0 17010-2 0 9992

TLE line 2: 2 42098 83.1521 83.7724 0138839 267.9859 90.5390 13.68075134591979

Live tracking on map

Real-time ground track for satellite COSMOS 1275 DEB.

In-orbit conjunctions

A list of the most updated potential collisions computed for object COSMOS 1275 DEB.

Target Orbit TCA Probability of collision Miss distance Type
SL-8 R/B LEO 2025-10-15 14:25:42 0.0003937782 180.0 (m) ROCKET BODY
THOR ABLESTAR DEB LEO 2025-02-04 22:57:26 0.0001628228 133.0 (m) DEBRIS

Associated space launch

Navigation satellite providing location information for the Tsiklon-B navigation system

COSMOS 1275 DEB was lifted into orbit during the mission ‘Kosmos-3M | Parus 27’, on board a Kosmos-3M space rocket.

The launch took place on June 4, 1981, 3:41 p.m. from 132/2.

For more information about the launch, click the button.

Launch to space Kosmos-3M | Parus 27
Kosmos-3M | Parus 27

Agency: N/A

Status: Launch Successful

Launch date: June 4, 1981, 3:41 p.m. UTC

Rocket: Kosmos-3M

Launch pad: 132/2

Location: Plesetsk Cosmodrome, Russian Federation

...

Latest news about this satellite

There are no fresh news available about this satellite. Check back as we update our databases every day.


Newsletter sign-up

Weekly statistics, charts and insights to help you stay on top of the space industry.